CW3660 Weather Reports


time (UTC)temp
F
wind
direction
speed
knots
gust
knots
rain 1hr
in
rain 24hr
in
rain mn
in
humidity
%
barometer
mb
20260507200017 63 315 4.3 13.9 0.00 0.11 0.01 32 1005.0
20260507195017 63 293 4.3 13.0 0.00 0.11 0.01 32 1005.1
20260507194017 64 270 3.5 12.2 0.00 0.11 0.01 31 1005.3
20260507193017 64 338 4.3 13.0 0.00 0.12 0.01 32 1005.4
20260507192037 63 338 3.5 7.0 0.00 0.12 0.01 32 1005.4
20260507191017 63 338 4.3 11.3 0.00 0.13 0.01 33 1005.6
20260507190017 63 338 4.3 8.7 0.00 0.13 0.01 31 1005.6
20260507185017 64 293 2.6 7.8 0.00 0.14 0.01 31 1005.7
20260507184017 63 315 4.3 10.4 0.00 0.14 0.01 32 1005.9
20260507183018 62 315 6.1 12.2 0.00 0.14 0.01 32 1005.9
20260507182017 62 338 5.2 13.0 0.00 0.14 0.01 32 1005.9
20260507181017 63 293 3.5 7.8 0.00 0.14 0.01 31 1006.0
20260507180017 63 315 5.2 14.8 0.00 0.14 0.01 32 1006.1
20260507175017 63 293 4.3 10.4 0.00 0.14 0.01 32 1006.0
20260507174057 63 270 3.5 10.4 0.00 0.14 0.01 32 1006.0
20260507173017 63 248 3.5 7.8 0.00 0.14 0.01 35 1005.9
20260507172017 62 315 4.3 12.2 0.00 0.14 0.01 35 1005.9
20260507171017 63 315 3.5 9.6 0.00 0.14 0.01 34 1006.1
20260507170017 62 315 3.5 7.8 0.00 0.14 0.01 40 1006.2
20260507165017 62 203 3.5 9.6 0.00 0.14 0.01 41 1006.5
20260507164017 60 315 6.1 13.0 0.00 0.14 0.01 42 1006.6
20260507163017 60 315 5.2 11.3 0.00 0.14 0.01 43 1006.7
20260507162037 60 315 5.2 10.4 0.00 0.14 0.01 45 1006.8
20260507161017 60 315 4.3 9.6 0.00 0.14 0.01 47 1006.9
20260507160017 59 293 4.3 7.8 0.00 0.14 0.01 53 1006.9
20260507155016 60 315 3.5 10.4 0.00 0.14 0.01 52 1006.9
20260507154057 59 248 3.5 8.7 0.00 0.14 0.01 56 1006.9
20260507153058 59 315 3.5 13.9 0.00 0.14 0.01 54 1006.9
20260507152017 59 338 3.5 7.8 0.00 0.14 0.01 58 1007.1
20260507151057 58 338 2.6 7.0 0.00 0.14 0.01 58 1007.1
20260507150017 58 315 2.6 7.0 0.00 0.14 0.01 59 1007.4
20260507145017 58 315 1.7 5.2 0.00 0.14 0.01 61 1007.4
20260507144037 58 338 2.6 6.1 0.00 0.14 0.01 59 1007.5
20260507143017 58 338 2.6 5.2 0.00 0.14 0.01 58 1007.4
20260507142017 58 315 1.7 5.2 0.00 0.14 0.01 60 1007.4
20260507141016 58 338 2.6 7.8 0.00 0.14 0.01 59 1007.5
20260507140037 58 315 2.6 7.8 0.00 0.14 0.01 61 1007.5
20260507135017 57 338 2.6 6.1 0.00 0.14 0.01 63 1007.4
20260507134018 58 23 1.7 3.5 0.00 0.14 0.01 64 1007.3
20260507133016 56 248 1.7 6.1 0.00 0.14 0.01 66 1007.5
20260507132017 56 315 1.7 4.3 0.00 0.14 0.01 69 1007.7
20260507131016 55 338 1.7 6.1 0.00 0.14 0.01 69 1007.7
20260507130017 54 225 2.6 6.1 0.00 0.14 0.01 71 1007.8
20260507125017 54 293 1.7 6.1 0.00 0.14 0.01 74 1007.9
20260507124016 53 315 2.6 7.0 0.00 0.14 0.01 75 1007.8
20260507123016 52 315 2.6 7.0 0.00 0.14 0.01 78 1007.9
20260507122016 51 315 1.7 7.0 0.00 0.14 0.01 80 1008.0
20260507121016 50 315 1.7 6.1 0.00 0.14 0.01 81 1007.9
20260507120017 51 315 1.7 4.3 0.00 0.14 0.01 81 1008.0
20260507115016 50 315 1.7 4.3 0.00 0.14 0.01 83 1007.9
20260507114016 50 315 1.7 4.3 0.00 0.14 0.01 84 1007.8
20260507113016 49 293 0.9 5.2 0.00 0.14 0.01 85 1007.9
20260507112016 49 338 0.9 3.5 0.00 0.14 0.01 85 1007.8
20260507111016 49 23 0.9 3.5 0.00 0.14 0.01 85 1007.6
20260507110153 49 315 0.9 3.5 0.00 0.14 0.03 85 1007.7
20260507105036 48 338 0.9 2.6 0.00 0.14 0.01 85 1007.8
20260507104036 48 315 1.7 6.1 0.00 0.14 0.01 85 1007.4
20260507103036 48 338 1.7 5.2 0.00 0.14 0.01 86 1007.1
20260507102017 48 338 1.7 3.5 0.00 0.14 0.01 87 1007.0
20260507101016 48 338 0.9 4.3 0.00 0.14 0.01 88 1006.8
20260507100016 48 315 1.7 5.2 0.00 0.14 0.01 88 1007.0
20260507095016 49 315 1.7 4.3 0.00 0.14 0.01 87 1006.8
20260507094016 49 0.0 4.3 0.00 0.14 0.01 87 1007.4
20260507093016 49 315 0.9 3.5 0.00 0.14 0.01 87 1006.9
20260507092017 49 315 0.9 1.7 0.00 0.14 0.01 86 1007.2
20260507091016 49 293 0.9 3.5 0.00 0.14 0.01 86 1007.1
20260507090016 49 315 0.9 2.6 0.00 0.14 0.01 86 1007.6
20260507085016 49 293 0.9 2.6 0.00 0.14 0.01 86 1007.2
20260507084016 50 315 1.7 5.2 0.00 0.14 0.01 87 1007.0
20260507083016 50 315 0.9 4.3 0.00 0.14 0.01 88 1007.0
20260507082016 50 315 0.9 3.5 0.00 0.14 0.01 88 1006.8
20260507081016 50 315 0.9 2.6 0.00 0.14 0.01 88 1006.8
20260507080016 51 315 0.9 6.1 0.00 0.14 0.01 88 1006.7
20260507075016 51 315 1.7 5.2 0.00 0.14 0.01 88 1007.1
20260507074016 52 315 0.9 4.3 0.00 0.14 0.01 89 1006.8
20260507073036 52 338 0.9 2.6 0.00 0.14 0.01 89 1006.9
20260507072036 52 338 0.9 2.6 0.00 0.14 0.01 89 1006.5
20260507071016 52 315 0.9 3.5 0.00 0.14 0.01 89 1006.4
20260507070016 52 0.0 2.6 0.00 0.14 0.01 88 1006.3
20260507065016 52 315 0.9 2.6 0.00 0.14 0.01 87 1005.9
20260507064016 52 0.0 1.7 0.00 0.14 0.01 87 1006.1
20260507063016 52 338 0.9 3.5 0.00 0.14 0.01 87 1006.3
20260507062016 52 338 1.7 4.3 0.00 0.14 0.01 87 1006.3
20260507061016 52 338 1.7 3.5 0.00 0.14 0.01 86 1006.1
20260507060036 52 338 1.7 5.2 0.00 0.14 0.01 86 1006.1
20260507055016 52 315 2.6 6.1 0.00 0.14 0.01 86 1006.2
20260507054016 53 315 1.7 6.1 0.00 0.14 0.01 87 1006.7
20260507053016 53 315 1.7 7.8 0.00 0.14 0.01 89 1006.6
20260507052016 54 315 2.6 6.1 0.00 0.14 0.01 91 1006.5
20260507051016 54 315 1.7 3.5 0.01 0.14 0.01 91 1006.7
20260507050016 54 315 0.9 3.5 0.01 0.14 0.01 91 1006.6
20260507045015 55 315 0.9 4.3 0.03 0.14 0.01 91 1006.5
20260507044016 55 315 0.9 3.5 0.03 0.14 0.01 91 1006.6
20260507043016 55 315 0.9 6.1 0.03 0.14 0.01 90 1006.4
20260507042016 55 315 1.7 5.2 0.03 0.14 0.01 90 1006.3
20260507041016 56 315 3.5 9.6 0.02 0.13 0.00 89 1006.3
20260507040015 57 315 2.6 8.7 0.02 0.13 0.13 89 1006.5
20260507035016 58 293 2.6 7.0 0.00 0.11 0.11 91 1006.3
20260507034016 58 293 1.7 6.1 0.00 0.11 0.11 93 1005.9
20260507033016 59 248 1.7 5.2 0.00 0.11 0.11 93 1005.9
20260507032016 59 293 1.7 4.3 0.00 0.11 0.11 94 1005.7
20260507031036 59 225 1.7 6.1 0.00 0.11 0.11 95 1005.4
20260507030116 59 248 1.7 4.3 0.00 0.11 0.11 95 1005.2
20260507025036 59 225 0.9 5.2 0.00 0.11 0.11 94 1005.3
20260507024016 59 225 1.7 5.2 0.00 0.11 0.11 94 1005.4
20260507023016 59 225 1.7 5.2 0.00 0.11 0.11 94 1005.3
20260507022016 59 180 1.7 6.1 0.00 0.11 0.11 94 1005.3
20260507021036 59 180 1.7 7.0 0.00 0.11 0.11 94 1005.1
20260507020016 59 203 1.7 5.2 0.00 0.11 0.11 94 1005.2
20260507015016 59 180 1.7 7.0 0.00 0.11 0.11 94 1005.2
20260507014036 59 203 1.7 6.1 0.00 0.11 0.11 94 1005.3
20260507013016 59 203 1.7 9.6 0.00 0.11 0.11 94 1005.2
20260507012016 59 180 1.7 6.1 0.00 0.11 0.11 94 1005.2
20260507011016 59 180 1.7 7.0 0.00 0.11 0.11 94 1005.3
20260507010016 59 225 2.6 8.7 0.00 0.11 0.11 94 1005.4
20260507005036 59 203 2.6 8.7 0.00 0.11 0.11 94 1005.3
20260507004056 59 180 2.6 6.1 0.00 0.11 0.11 94 1005.2
20260507003056 59 203 1.7 5.2 0.00 0.11 0.11 94 1005.2
20260507002016 59 203 2.6 7.8 0.00 0.11 0.11 94 1005.2
20260507001016 59 180 3.5 10.4 0.01 0.11 0.11 94 1005.2
20260507000016 59 180 3.5 8.7 0.03 0.11 0.11 94 1005.1
20260506235016 59 180 2.6 7.0 0.03 0.11 0.11 94 1004.9
20260506234036 59 203 2.6 5.2 0.04 0.11 0.11 94 1005.0
20260506233016 59 180 3.5 7.8 0.04 0.11 0.11 94 1004.9
20260506232015 59 180 2.6 9.6 0.04 0.11 0.11 93 1004.9
20260506231017 59 158 3.5 7.8 0.04 0.10 0.10 93 1004.9
20260506230016 60 180 2.6 6.1 0.02 0.08 0.08 93 1005.0
20260506225016 60 180 2.6 7.0 0.02 0.08 0.08 93 1005.1
20260506224015 60 180 2.6 5.2 0.01 0.07 0.07 93 1005.1
20260506223035 60 203 2.6 8.7 0.01 0.07 0.07 93 1005.1
20260506222015 60 180 4.3 9.6 0.01 0.07 0.07 92 1005.1
20260506221016 60 203 3.5 9.6 0.00 0.06 0.06 92 1005.3
20260506220017 60 180 3.5 10.4 0.00 0.06 0.06 92 1005.4
20260506215015 60 225 3.5 12.2 0.01 0.06 0.06 92 1005.4
20260506214015 60 203 3.5 8.7 0.01 0.06 0.06 92 1005.4
20260506213036 60 203 4.3 13.9 0.02 0.06 0.06 91 1005.5
20260506212015 60 180 3.5 11.3 0.02 0.06 0.06 91 1005.8
20260506211015 60 180 2.6 7.8 0.02 0.06 0.06 91 1005.9
20260506210015 60 248 2.6 8.7 0.03 0.06 0.06 91 1005.9
20260506205015 60 203 4.3 13.9 0.02 0.05 0.05 90 1006.0
20260506204015 60 225 4.3 13.0 0.02 0.05 0.05 90 1006.1
20260506203016 61 203 3.5 12.2 0.02 0.04 0.04 89 1006.1
20260506202015 61 225 4.3 12.2 0.02 0.04 0.04 89 1006.1
20260506201015 62 180 4.3 11.3 0.03 0.04 0.04 88 1005.9